Location: ??????????
(44.2167°N, 135.5333°E)
Time: 14:26:01
(UTC+00:00)

ADEOS II - Pass Details

Date: 15 June 2025
Orbit: 794 x 796 km, 98.7° (Epoch: 15 July)

Event Time Altitude Azimuth Distance (km) Brightness Sun altitude
Rises 17:35:40 0° 15° (NNE) 3,306 6.7 -13.5°
Reaches altitude 10° 17:38:01 10° 17° (NNE) 2,372 5.7 -13.2°
Maximum altitude 17:43:16 77° 104° (ESE) 818 2.2 -12.6°
Enters shadow 17:48:04 12° 190° (S) 2,198 3.8 -12.1°
